HK4D-13 Weather Reports


Display with metric or nautical units.
time (UTC)temp
F
wind
direction
speed
MPH
gust
MPH
rain 1hr
in
rain 24hr
in
rain mn
in
humidity
%
barometer
mb
20260503054430 59 0 2.0 0.0 0.00 0.00 0.00 98 1018.0
20260503053429 59 0 2.0 0.0 0.00 0.00 0.00 98 1018.0
20260503052428 59 0 2.0 0.0 0.00 0.00 0.00 98 1018.0
20260503051429 59 0 2.0 0.0 0.00 0.00 0.00 98 1018.0
20260503050424 59 0 2.0 0.0 0.00 0.00 0.00 98 1018.0
20260503045424 59 0 2.0 0.0 0.00 0.00 0.00 98 1018.0
20260503044423 59 0 2.0 0.0 0.00 0.00 0.00 98 1018.0
20260503043423 59 0 2.0 0.0 0.00 0.00 0.00 98 1018.0
20260503042422 59 0 2.0 0.0 0.00 0.00 0.00 98 1018.0
20260503041422 59 0 2.0 0.0 0.00 0.00 0.00 97 1018.0
20260503040422 59 360 2.0 0.0 0.00 0.00 0.00 96 1018.0
20260503035421 59 360 2.0 0.0 0.00 0.00 0.00 96 1018.0
20260503034419 59 360 2.0 0.0 0.00 0.00 0.00 96 1018.0
20260503033417 59 360 2.0 0.0 0.00 0.00 0.00 96 1018.0
20260503032416 59 360 2.0 0.0 0.00 0.00 0.00 96 1018.0
20260503031415 59 360 2.0 0.0 0.00 0.00 0.00 97 1018.0
20260503030415 59 0 2.0 0.0 0.00 0.00 0.00 98 1018.0
20260503025414 59 0 2.0 0.0 0.00 0.00 0.00 98 1018.0
20260503024414 59 0 2.0 0.0 0.00 0.00 0.00 98 1018.0
20260503023412 59 0 2.0 0.0 0.00 0.00 0.00 98 1018.0
20260503022409 59 0 2.0 0.0 0.00 0.00 0.00 97 1017.0
20260503021408 59 0 2.0 0.0 0.00 0.00 0.00 97 1017.0
20260503020406 62 180 10.0 0.0 0.00 0.00 0.00 93 1017.0
20260503015406 62 180 10.0 0.0 0.00 0.00 0.00 93 1017.0
20260503014405 62 180 10.0 0.0 0.00 0.00 0.00 93 1017.0
20260503013405 62 180 10.0 0.0 0.00 0.00 0.00 93 1017.0
20260503012403 62 180 10.0 0.0 0.00 0.00 0.00 93 1016.0
20260503011402 62 180 10.0 0.0 0.00 0.00 0.00 93 1016.0
20260503010401 62 180 10.0 0.0 0.00 0.00 0.00 93 1016.0
20260503005401 62 180 10.0 0.0 0.00 0.00 0.00 93 1016.0
20260503004356 62 180 10.0 0.0 0.00 0.00 0.00 92 1015.0
20260503003356 62 180 10.0 0.0 0.00 0.00 0.00 90 1014.0
20260503002353 62 180 10.0 0.0 0.00 0.00 0.00 90 1014.0
20260503001353 62 180 10.0 0.0 0.00 0.00 0.00 87 1014.0
20260503000352 62 180 10.0 0.0 0.00 0.00 0.00 83 1014.0
20260502235350 62 180 10.0 0.0 0.00 0.00 0.00 83 1014.0
20260502234348 62 180 10.0 0.0 0.00 0.00 0.00 82 1014.0
20260502233347 62 180 10.0 0.0 0.00 0.00 0.00 81 1014.0
20260502232347 62 180 10.0 0.0 0.00 0.00 0.00 80 1015.0
20260502231346 62 180 10.0 0.0 0.00 0.00 0.00 79 1015.0
20260502230346 62 180 10.0 0.0 0.00 0.00 0.00 76 1015.0
20260502225344 62 180 10.0 0.0 0.00 0.00 0.00 76 1014.0
20260502224344 62 180 10.0 0.0 0.00 0.00 0.00 76 1014.0
20260502223342 62 180 10.0 0.0 0.00 0.00 0.00 76 1014.0
20260502222340 62 180 10.0 0.0 0.00 0.00 0.00 76 1013.0
20260502221340 62 180 10.0 0.0 0.00 0.00 0.00 76 1013.0
20260502220338 62 180 10.0 0.0 0.00 0.00 0.00 76 1013.0
20260502215337 62 180 10.0 0.0 0.00 0.00 0.00 77 1013.0
20260502214335 62 180 10.0 0.0 0.00 0.00 0.00 78 1013.0
20260502213334 61 180 10.0 0.0 0.00 0.00 0.00 79 1013.0
20260502212334 61 180 10.0 0.0 0.00 0.00 0.00 80 1012.0
20260502211333 61 180 10.0 0.0 0.00 0.00 0.00 82 1012.0
20260502210333 60 180 10.0 0.0 0.00 0.00 0.00 84 1012.0
20260502205332 60 180 10.0 0.0 0.00 0.00 0.00 84 1012.0
20260502204330 60 180 10.0 0.0 0.00 0.00 0.00 84 1012.0
20260502203329 60 180 10.0 0.0 0.00 0.00 0.00 84 1012.0
20260502202328 60 180 10.0 0.0 0.00 0.00 0.00 84 1012.0
20260502201327 60 180 10.0 0.0 0.00 0.00 0.00 83 1012.0
20260502200326 60 180 10.0 0.0 0.00 0.00 0.00 83 1012.0
20260502195325 60 180 10.0 0.0 0.00 0.00 0.00 83 1012.0
20260502194324 60 180 10.0 0.0 0.00 0.00 0.00 83 1012.0
20260502193324 60 180 10.0 0.0 0.00 0.00 0.00 82 1012.0
20260502192323 60 180 10.0 0.0 0.00 0.00 0.00 81 1012.0
20260502191322 60 180 10.0 0.0 0.00 0.00 0.00 80 1012.0
20260502190321 64 60 4.0 0.0 0.00 0.00 0.00 75 1012.0
20260502185318 64 60 4.0 0.0 0.00 0.00 0.00 75 1012.0
20260502184317 64 60 4.0 0.0 0.00 0.00 0.00 75 1012.0
20260502183316 64 60 4.0 0.0 0.00 0.00 0.00 75 1012.0
20260502182315 64 60 4.0 0.0 0.00 0.00 0.00 75 1013.0
20260502181315 64 60 4.0 0.0 0.00 0.00 0.00 75 1013.0
20260502180314 64 30 4.0 0.0 0.00 0.00 0.00 75 1013.0
20260502170311 64 20 3.0 0.0 0.00 0.00 0.00 69 1015.0
20260502164307 64 20 3.0 0.0 0.00 0.00 0.00 70 1015.0
20260502163307 64 20 3.0 0.0 0.00 0.00 0.00 71 1015.0
20260502162300 63 20 3.0 0.0 0.00 0.00 0.00 73 1015.0
20260502161258 63 20 3.0 0.0 0.00 0.00 0.00 74 1015.0
20260502160258 59 240 3.0 0.0 0.00 0.00 0.00 86 1015.0
20260502152254 58 240 3.0 0.0 0.00 0.00 0.00 89 1015.0
20260502151254 58 240 3.0 0.0 0.00 0.00 0.00 89 1015.0
20260502150252 58 240 3.0 0.0 0.00 0.00 0.00 89 1015.0
20260502130241 56 240 3.0 0.0 0.00 0.00 0.00 97 1016.0
20260502123236 56 240 3.0 0.0 0.00 0.00 0.00 97 1016.0
20260502122234 56 240 3.0 0.0 0.00 0.00 0.00 97 1016.0
20260502121234 56 240 3.0 0.0 0.00 0.00 0.00 98 1016.0
20260502120233 56 240 3.0 0.0 0.00 0.00 0.00 99 1016.0
20260502115232 56 240 3.0 0.0 0.00 0.00 0.00 99 1016.0
20260502114231 56 240 3.0 0.0 0.00 0.00 0.00 99 1016.0
20260502113231 56 240 3.0 0.0 0.00 0.00 0.00 99 1016.0
20260502112230 56 240 3.0 0.0 0.00 0.00 0.00 99 1015.0
20260502111228 56 240 3.0 0.0 0.00 0.00 0.00 99 1015.0
20260502110227 56 240 3.0 0.0 0.00 0.00 0.00 99 1015.0
20260502105225 56 240 3.0 0.0 0.00 0.00 0.00 99 1015.0
20260502104225 56 240 3.0 0.0 0.00 0.00 0.00 99 1015.0
20260502103224 56 240 3.0 0.0 0.00 0.00 0.00 99 1015.0
20260502102224 56 240 3.0 0.0 0.00 0.00 0.00 99 1015.0
20260502101223 56 240 3.0 0.0 0.00 0.00 0.00 99 1015.0
20260502100221 56 240 3.0 0.0 0.00 0.00 0.00 99 1015.0
20260502091217 56 240 3.0 0.0 0.00 0.00 0.00 99 1014.0
20260502090213 56 0 1.0 0.0 0.00 0.00 0.00 99 1014.0
20260502071204 58 290 3.0 0.0 0.07 0.00 0.00 98 1015.0
20260502070203 58 290 3.0 0.0 0.03 0.00 0.00 97 1015.0
20260502065202 58 290 3.0 0.0 0.07 0.00 0.00 97 1015.0